#timestamp,LO_Frequency,Hit,StdDev 
1510772415.6,286047038.1,N
1510772435.4,286047046.6,Y
1510772455.2,286047021.0,P
1510772475.1,286047022.9,P
1510772476.0,286047022.9,P
1510772495.8,286047023.3,Y
1510772515.6,286046999.1,P
1510772535.5,286046988.8,N
1510772555.3,286046982.2,N
1510772575.1,286046980.0,N
1510772595.9,286046973.6,N
1510772615.7,286046971.6,N
1510772635.5,286046970.2,N
1510772655.3,286046969.5,N
1510772675.2,286046975.3,N
1510772695.0,286046968.3,N
1510772695.9,286046968.3,N
1510772715.7,286046971.3,N
1510772735.6,286046969.4,N
1510772755.4,286046966.9,N
1510772775.2,286046970.5,N
1510772795.1,286046973.2,N
1510772796.0,286046973.2,N
1510772815.8,286046969.8,N
1510772835.6,286046969.2,N
1510772855.5,286046973.1,N
1510772875.3,286046968.8,N
1510772895.1,286046969.9,N
1510772915.9,286046961.7,Y
1510772935.7,286046984.8,P
1510772955.5,286046984.8,P
1510772975.4,286046978.0,P
1510772995.2,286046991.4,N
1510773015.0,286046995.7,N
1510773015.9,286046995.7,N
1510773035.7,286046988.3,N
1510773055.6,286046983.2,N
1510773075.4,286046984.6,N
1510773095.2,286046986.3,N
1510773115.1,286046985.9,N
1510773116.0,286046985.9,N
1510773135.8,286046985.6,N
1510773155.6,286046987.2,N
1510773175.5,286046987.5,N
1510773195.3,286046990.8,N
1510773215.1,286046994.1,N
1510773235.9,286046992.0,N
1510773255.7,286046998.9,N
1510773275.5,286047013.6,N
1510773295.3,286047011.6,N
1510773315.2,286047009.7,N
1510773335.0,286047006.3,N
1510773335.9,286047006.3,N
1510773355.7,286047015.6,N
1510773375.6,286047015.1,N
1510773395.4,286047020.8,N
1510773415.2,286047025.2,N
1510773435.1,286047023.5,N
1510773436.0,286047023.5,N
1510773455.8,286047021.4,N
1510773475.6,286047034.7,N
1510773495.5,286047033.3,N
1510773515.3,286047040.9,N
1510773535.1,286047038.8,N
1510773555.9,286047032.2,N
1510773575.7,286047028.0,N
1510773595.5,286047035.0,N
1510773615.4,286047045.5,N
1510773635.2,286047045.7,N
1510773655.0,286047050.8,N
1510773655.9,286047050.8,N
1510773675.7,286047046.3,N
1510773695.6,286047050.4,N
1510773715.4,286047058.4,Y
1510773735.3,286047033.2,P
1510773755.1,286047030.8,P
1510773756.0,286047030.8,P
1510773775.8,286047032.0,Y
1510773795.7,286047004.7,P
1510773815.5,286047011.5,N
1510773835.3,286047013.2,N
1510773855.1,286047002.5,N
1510773875.9,286047004.1,N
1510773895.7,286047000.5,N
1510773915.5,286046999.3,N
1510773935.4,286046991.9,N
1510773955.2,286046993.5,N
1510773975.0,286046990.5,N
1510773975.9,286046990.5,N
1510773995.8,286046982.5,N
1510774015.6,286046979.3,N
1510774035.4,286046975.9,N
1510774055.3,286046977.0,N
1510774075.1,286046976.8,N
1510774076.0,286046976.8,N
1510774095.8,286046983.2,N
1510774115.7,286046984.5,N
1510774135.5,286046982.6,N
1510774155.3,286046980.1,N
1510774175.1,286046978.7,N
1510774195.9,286046971.5,N
1510774215.7,286046967.4,N
1510774235.5,286046961.9,N
1510774255.4,286046969.9,N
1510774275.2,286046967.2,N
1510774295.0,286046965.3,N
1510774295.9,286046965.3,N
1510774315.8,286046961.8,N
1510774335.6,286046972.1,N
1510774355.4,286046975.6,N
1510774375.3,286046980.6,N
1510774395.1,286046980.3,N
1510774396.0,286046980.3,N
1510774415.8,286046982.0,N
1510774435.7,286046985.6,N
1510774455.5,286046993.2,N
1510774475.3,286046993.2,N
1510774495.1,286046996.7,N
1510774515.9,286047003.7,N
1510774535.7,286046995.0,N
1510774555.5,286046995.0,N
1510774575.4,286046986.1,N
1510774595.2,286046975.7,N
1510774615.0,286046970.3,N
1510774615.9,286046970.3,N
1510774635.8,286046971.4,N
1510774655.6,286046981.5,N
1510774675.4,286046972.4,N
1510774695.3,286046967.3,N
1510774715.1,286046971.6,N
1510774716.0,286046971.6,N
1510774735.8,286046967.4,N
1510774755.7,286046970.9,N
1510774775.5,286046981.0,N
1510774795.3,286046982.2,N
1510774815.2,286046980.0,N
1510774835.9,286046978.4,N
1510774855.7,286046979.7,N
1510774875.5,286046973.3,N
1510774895.4,286046964.6,Y
1510774915.2,286046977.4,P
1510774935.0,286046979.3,P
1510774936.0,286046979.3,P
1510774955.8,286046972.5,Y
1510774975.6,286046983.8,P
1510774995.5,286046986.9,P
1510775015.3,286046987.2,P
1510775035.1,286046989.2,Y
1510775055.9,286047004.6,P
1510775075.7,286047005.7,N
1510775095.5,286047001.9,N
1510775115.3,286047006.7,N
1510775135.2,286046998.6,N
1510775155.0,286046996.4,N
1510775155.9,286046996.4,N
1510775175.7,286046994.7,N
1510775195.6,286046992.8,N
1510775215.4,286046986.8,N
1510775235.2,286046983.2,N
1510775255.1,286046982.8,N
1510775256.0,286046982.8,N
1510775275.8,286046981.1,N
1510775295.6,286046977.9,N
1510775315.5,286046977.1,N
1510775335.3,286046977.7,N
1510775355.1,286046979.0,N
1510775375.9,286046981.5,N
1510775395.7,286046981.1,N
1510775415.5,286046985.2,N
1510775435.3,286046983.4,N
1510775455.2,286046979.5,N
1510775475.0,286046976.6,N
1510775475.9,286046976.6,N
1510775495.7,286046975.1,N
1510775515.6,286046973.4,N
1510775535.4,286046972.6,N
1510775555.2,286046975.6,N
1510775575.1,286046973.1,N
1510775576.0,286046973.1,N
1510775595.8,286046971.3,N
1510775615.6,286046973.3,N
1510775635.5,286046974.4,N
1510775655.3,286046976.6,Y
1510775675.1,286046996.9,P
1510775695.9,286046996.8,N
1510775715.7,286047006.2,N
1510775735.5,286047007.7,N
1510775755.4,286047012.2,N
1510775775.2,286047015.2,N
1510775795.0,286047013.8,N
1510775795.9,286047013.8,N
1510775815.8,286047013.0,N
1510775835.6,286047018.0,N
1510775855.4,286047020.1,N
1510775875.2,286047023.3,N
1510775895.1,286047022.3,N
1510775896.0,286047022.3,N
1510775915.8,286047022.2,N
1510775935.6,286047020.5,N
1510775955.5,286047018.9,N
1510775975.3,286047020.0,N
1510775995.1,286047021.0,N
